Content
SEND FEEDBACK

Daily
Averages
Monthly
Summary
United States of America

ST. LOUIS, MISSOURI


Home > North America > United States > Missouri
Elevation: 535 feet     Latitude: 38 45N     Longitude: 090 22W

WEATHER
 
SELECT A DAY
Number of Records: 200,489;   Date Range: 1/1/95 - 11/22/14
 
SHARE

PRINT THIS DATA

[ ← Previous Day ]
WEATHER ALMANAC - JANUARY 14, 2013
[ Next Day → ]
[ °C ]   °F
Weather ElementAverageHighLow
Temperature20.3 °F28 °F (3:54 pm)16 °F (5:54 am)
Dewpoint11.4 °F14 °F (7:54 pm)8.1 °F (10:54 am)
Humidity69.5 %84 % (8:54 pm)51 % (3:54 pm)
Barometer30.48 in30.53 in (9:54 am)30.45 in (1:54 am)
Wind Speed1.7 mph6.9 mph (10:54 am)
Weather ElementAverage
Visibility10 mi
Wind DirectionENE (71.8 °)

Weather ElementTotal
Precipitation---
Heating Degree Days43 (Base 65)
Averaged from 22 records on January 14, 2013
WEATHER CONDITIONS BREAKOUT
WIND DIRECTION BREAKOUT
WEATHER BY HOUR - JANUARY 14, 2013
[ °C ]   °F
Local TimeTemperatureDewpointHumidityBarometerVisibilityWind DirectionWind SpeedGust SpeedPrecipitationEventsConditions
1:54 AM17.1 °F12.0 °F81 %30.45 in10.0 miWSW (240°)3.5 mphClear
2:54 AM17.1 °F10.9 °F77 %30.47 in10.0 miWest (280°)4.6 mphClear
4:54 AM17.1 °F10.0 °F74 %30.45 in10.0 miWNW (300°)3.5 mphClear
5:54 AM16.0 °F10.0 °F77 %30.46 in10.0 miCalmClear
6:54 AM16.0 °F10.0 °F77 %30.46 in10.0 miCalmClear
7:54 AM17.1 °F10.9 °F77 %30.48 in10.0 miCalmClear
8:54 AM19.9 °F12.0 °F71 %30.52 in10.0 miNorth (360°)4.6 mphScattered Clouds
9:54 AM21.9 °F10.9 °F63 %30.53 in10.0 miNorth (10°)5.8 mphOvercast
10:54 AM21.9 °F8.1 °F55 %30.53 in10.0 miNorth (350°)6.9 mphMostly Cloudy
11:54 AM23.0 °F9.0 °F55 %30.52 in10.0 miCalmPartly Cloudy
12:54 PM24.1 °F10.0 °F55 %30.51 in10.0 miCalmMostly Cloudy
1:54 PM25.0 °F12.0 °F58 %30.49 in10.0 miCalmMostly Cloudy
2:54 PM27.0 °F12.0 °F53 %30.48 in10.0 miCalmPartly Cloudy
3:54 PM28.0 °F12.0 °F51 %30.48 in10.0 miCalmClear
4:54 PM25.0 °F12.0 °F58 %30.48 in10.0 miNorth (10°)4.6 mphClear
5:54 PM23.0 °F12.0 °F63 %30.47 in10.0 miNNE (30°)4.6 mphClear
6:54 PM19.9 °F12.9 °F74 %30.46 in10.0 miCalmClear
7:54 PM19.0 °F14.0 °F81 %30.45 in10.0 miCalmClear
8:54 PM18.0 °F14.0 °F84 %30.45 in10.0 miCalmClear
9:54 PM18.0 °F12.9 °F81 %30.45 in10.0 miCalmClear
10:54 PM16.0 °F12.0 °F84 %30.46 in10.0 miCalmClear
11:54 PM16.0 °F10.9 °F81 %30.47 in10.0 miCalmClear
Hourly data recorded from KSUS, located miles away from St. Louis, Missouri







STORIES FROM OUR PARTNERS